Lid_Strength_Index
11 13 14 12 11 11 11 13 13 12 10 12 12 12 11 10 10 11 9 9 7 7 5 6 6 3 5 6 5 6 6 6 5 5 4 4 4 3 1 1 0 1 1 1
12 13 10 10 10 10 11 13 13 11 10 12 12 12 11 11 11 10 9 8 8 6 5 4 4 3 4 5 5 6 4 3 3 2 2 2 1 1 0 0 -0 -0 -0 -0
12 10 9 10 11 11 12 13 13 13 11 11 12 13 12 11 9 9 9 8 7 5 5 4 4 3 3 3 3 4 4 4 2 2 2 2 2 1 2 1 0 -0 -0 -0
11 9 9 11 11 10 13 10 11 12 13 16 12 17 13 12 11 9 8 9 7 6 5 5 5 5 4 5 4 3 3 3 2 2 3 3 3 4 3 1 1 0 -0 -0
11 10 11 12 11 10 11 10 11 12 14 15 14 16 14 12 12 10 9 8 7 7 6 6 5 4 3 3 3 3 2 2 2 2 2 3 3 3 2 2 2 2 1 0
9 8 9 10 9 9 9 11 13 14 15 18 16 16 15 13 12 11 9 8 7 7 6 5 5 4 4 4 4 4 4 5 4 4 3 4 4 4 4 4 4 3 3 2
11 11 9 9 11 10 11 14 18 18 18 18 14 15 14 11 10 9 9 9 8 7 7 7 6 6 6 6 6 6 7 7 6 6 6 5 5 5 5 5 5 4 4 3
14 14 10 8 9 11 13 14 17 19 19 18 14 17 13 10 9 9 9 8 8 8 8 8 8 9 9 8 7 7 7 7 7 7 7 7 7 7 6 6 6 5 3 2
14 13 8 8 8 9 12 14 12 15 16 18 16 14 11 9 10 9 9 9 9 10 10 9 9 9 8 8 8 8 8 8 7 7 8 8 7 7 8 7 6 5 4 3
12 14 9 8 8 8 11 10 15 16 20 21 17 16 15 12 11 10 10 11 10 10 10 9 9 8 8 8 8 8 8 8 8 8 8 7 8 8 8 7 6 6 5 4
11 12 13 10 11 12 11 13 13 14 16 20 21 17 11 11 11 11 11 11 11 11 11 10 9 9 9 9 9 8 8 8 8 8 8 8 8 8 7 7 7 7 6 6
10 13 15 13 10 9 11 12 13 17 17 16 17 16 9 10 10 11 11 11 11 10 10 10 10 9 9 9 9 8 8 8 8 8 8 9 9 8 8 8 7 7 7 7
10 13 17 16 12 10 12 12 12 13 15 17 19 17 9 10 10 10 11 11 10 10 10 10 10 10 9 9 9 9 9 9 9 9 9 9 9 9 9 8 8 8 8 8
8 13 14 17 15 13 15 13 12 13 17 16 16 15 12 10 10 10 11 11 10 10 9 9 9 10 10 9 9 9 9 9 9 9 9 9 9 9 9 9 10 9 9 8
11 14 13 12 11 12 13 13 13 14 14 16 14 14 12 11 10 11 10 10 10 10 10 9 10 10 10 9 9 9 9 9 9 9 9 10 10 10 10 10 10 9 9 8
11 14 13 14 11 12 13 12 12 12 12 13 13 13 10 11 10 10 10 10 10 9 9 9 9 9 9 10 10 10 10 8 9 10 10 10 10 10 10 10 10 10 9 9
13 13 15 17 13 13 16 13 12 12 11 12 15 12 10 11 10 10 10 10 10 10 9 9 9 9 10 10 10 10 10 9 10 10 10 11 11 10 10 10 10 10 10 10
13 14 15 17 15 21 13 9 9 11 10 10 10 10 11 10 10 10 10 10 10 10 10 10 10 10 10 9 10 10 9 10 10 11 11 11 11 11 11 10 10 10 10 10
11 13 15 17 17 14 12 11 11 12 13 10 11 10 10 10 10 11 9 9 10 10 10 10 10 10 9 10 10 10 10 11 11 12 12 11 11 12 11 11 10 10 10 9
10 11 15 16 18 20 13 9 8 9 15 9 10 10 10 10 12 11 10 10 11 11 11 11 10 10 11 10 10 11 12 12 13 12 12 11 11 11 11 11 10 10 9 8
14 14 16 16 18 15 10 8 7 16 14 10 9 9 9 10 10 10 11 11 11 11 10 10 10 11 10 10 11 12 13 14 13 12 12 12 11 11 11 11 10 9 7 7
15 15 16 15 17 18 8 9 13 11 10 9 9 9 10 10 11 11 11 12 11 10 10 9 10 10 10 11 12 14 14 13 13 13 12 12 11 11 11 10 9 7 7 8
15 12 15 13 14 11 8 9 8 8 9 9 10 9 9 10 11 11 12 11 11 10 10 10 10 10 11 12 13 15 14 13 13 13 12 11 11 11 10 9 8 7 8 8
10 8 12 12 10 9 8 7 7 7 8 8 8 9 9 11 11 12 11 11 11 10 10 10 11 12 14 14 14 14 13 13 13 13 13 12 12 11 9 8 7 7 8 8
10 9 11 11 9 8 8 7 7 8 8 9 9 10 11 11 11 12 12 12 11 10 10 10 13 14 14 14 14 14 13 13 14 14 13 13 12 11 10 7 7 8 8 8
11 11 12 12 8 9 8 6 7 9 9 9 10 11 10 11 11 11 12 11 11 11 11 12 13 14 14 14 14 14 13 13 14 14 13 13 12 11 9 8 7 8 9 10